Faith, SD

7:39 PM MST on February 23, 2017 (GMT -0700)
Faith

Weather History for KD07 - October, 2013

Change the Weather History Date:

Wednesday, October 2, 2013

  Actual Average Record
Temperature  
Mean Temperature 57 °F 52 °F  
Max Temperature 67 °F 65 °F 90 °F (2011)
Min Temperature 46 °F 40 °F 26 °F (1999)
Degree Days  
Heating Degree Days 8 13  
Month to date heating degree days 16 26  
Since 1 July heating degree days 111 258  
Cooling Degree Days 0 0  
Month to date cooling degree days 0 0  
Year to date cooling degree days 720 634  
Growing Degree Days 5 (Base 50)    
Moisture  
Dew Point 36 °F    
Average Humidity 57    
Maximum Humidity 82    
Minimum Humidity 31    
Precipitation  
Precipitation 0.00 in 0.03 in 0.44 in (2015)
Month to date precipitation 0.00 0.07  
Year to date precipitation 13.47 15.25  
Sea Level Pressure  
Sea Level Pressure 29.92 in    
Wind  
Wind Speed 14 mph (NNE)    
Max Wind Speed 33 mph    
Max Gust Speed 39 mph    
T = Trace of Precipitation, MM = Missing Value Source: NWS Daily Summary

Daily Weather History Graph

Daily Weather History Graph

Search for Another Location

Airport or City:

Trip Planner

Search our weather history database for the weather conditions in past years. The results will help you decide how hot, cold, wet, or windy it might be!

Date:

Astronomy

Oct. 02, 2013 Rise Set
Actual Time 6:47 AM MDT 6:26 PM MDT
Civil Twilight 6:18 AM MDT 6:55 PM MDT
Nautical Twilight 5:44 AM MDT 7:29 PM MDT
Astronomical Twilight 5:09 AM MDT 8:03 PM MDT
Moon 4:17 AM MDT (10/2) 5:06 PM MDT (10/2)
Length of Visible Light 12h 36m
Length of Day
11h 38m
Waning Crescent, 6% of the Moon is Illuminated
Oct 2
Waning Crescent
Oct 4
New
Oct 11
First Quarter
Oct 18
Full
Oct 26
Last Quarter

Hourly Weather History & Observations

Time (MDT) Temp. Dew Point Humidity Pressure Visibility Wind Dir Wind Speed Gust Speed Precip Events Conditions
12:56 AM 55.9 °F 33.1 °F 42% 29.85 in - SE 16.1 mph - N/A   Unknown
1:56 AM 55.9 °F 34.0 °F 44% 29.83 in - SE 17.3 mph 24.2 mph N/A   Unknown
2:56 AM 55.9 °F 35.1 °F 45% 29.81 in - SSE 16.1 mph - N/A   Unknown
3:56 AM 55.0 °F 37.0 °F 51% 29.78 in - SSE 17.3 mph - N/A   Unknown
4:56 AM 54.0 °F 37.0 °F 53% 29.80 in - SSE 16.1 mph - N/A   Unknown
5:56 AM 50.0 °F 37.0 °F 61% 29.83 in - SSE 6.9 mph - N/A   Unknown
6:56 AM 46.9 °F 37.0 °F 68% 29.86 in - NNW 3.5 mph - N/A   Unknown
7:56 AM 46.9 °F 39.0 °F 74% 29.90 in - NW 10.4 mph - N/A   Unknown
8:56 AM 52.0 °F 39.0 °F 61% 29.91 in - NNW 20.7 mph - N/A   Unknown
9:56 AM 55.9 °F 37.9 °F 51% 29.93 in - NNW 21.9 mph 28.8 mph N/A   Unknown
10:56 AM 62.1 °F 36.0 °F 38% 29.93 in - North 27.6 mph 36.8 mph N/A   Unknown
11:56 AM 64.9 °F 36.0 °F 34% 29.94 in - North 27.6 mph 38.0 mph N/A   Unknown
12:56 PM 64.9 °F 35.1 °F 33% 29.94 in - North 25.3 mph 36.8 mph N/A   Unknown
1:56 PM 64.9 °F 34.0 °F 32% 29.95 in - North 20.7 mph 32.2 mph N/A   Unknown
2:56 PM 64.9 °F 34.0 °F 32% 29.94 in - North 21.9 mph 27.6 mph N/A   Unknown
3:56 PM 64.0 °F 33.1 °F 31% 29.95 in - North 20.7 mph 27.6 mph N/A   Unknown
4:56 PM 63.0 °F 33.1 °F 33% 29.96 in - NNE 17.3 mph - N/A   Unknown
5:56 PM 57.9 °F 34.0 °F 41% 29.98 in - NNE 11.5 mph - N/A   Unknown
6:56 PM 51.1 °F 35.1 °F 54% 30.01 in - NNE 8.1 mph - N/A   Unknown
7:56 PM 50.0 °F 36.0 °F 59% 30.01 in - NE 6.9 mph - N/A   Unknown
8:56 PM 48.9 °F 36.0 °F 61% 30.01 in - ENE 6.9 mph - N/A   Unknown
9:56 PM 48.0 °F 39.9 °F 74% 30.01 in - East 8.1 mph - N/A   Unknown
10:56 PM 48.0 °F 42.1 °F 80% 29.99 in - East 8.1 mph - N/A   Unknown
11:56 PM 46.0 °F 41.0 °F 83% 29.97 in - Calm Calm - N/A   Unknown